QPF
0.02 0.02 0.03 0.02 0.03 0.02 0.03 0.05 0.05 0.06 0.05 0.05 0.05 0.05 0.05 0.05 0.06 0.05 0.03 0.04 0.03 0.02 0.02 0.03 0.02 0.02 0.01 0.01 0.00 0.00 0.00 0.00 0.00 0.00 0.00 0.00 0.00 0.00 0.00 0.00 0.00 0.00 0.00 0.00
0.02 0.02 0.01 0.01 0.02 0.03 0.04 0.05 0.07 0.06 0.05 0.05 0.06 0.06 0.07 0.05 0.05 0.04 0.04 0.03 0.02 0.03 0.03 0.05 0.04 0.02 0.01 0.00 0.00 0.00 0.00 0.00 0.00 0.00 0.00 0.00 0.00 0.00 0.00 0.00 0.00 0.00 0.00 0.00
0.02 0.02 0.02 0.02 0.02 0.05 0.05 0.06 0.08 0.06 0.05 0.06 0.05 0.05 0.06 0.06 0.06 0.04 0.03 0.02 0.02 0.01 0.03 0.05 0.04 0.03 0.01 0.00 0.00 0.00 0.00 0.00 0.00 0.00 0.00 0.00 0.00 0.00 0.00 0.00 0.00 0.00 0.00 0.00
0.02 0.02 0.02 0.02 0.04 0.08 0.07 0.05 0.05 0.07 0.06 0.08 0.04 0.04 0.04 0.06 0.06 0.04 0.03 0.03 0.03 0.01 0.01 0.02 0.02 0.01 0.01 0.00 0.00 0.00 0.00 0.00 0.00 0.00 0.00 0.00 0.00 0.00 0.00 0.00 0.00 0.00 0.00 0.00
0.02 0.02 0.03 0.04 0.04 0.06 0.07 0.04 0.05 0.08 0.07 0.05 0.05 0.04 0.03 0.04 0.04 0.06 0.05 0.03 0.03 0.01 0.01 0.01 0.02 0.01 0.01 0.00 0.00 0.00 0.00 0.00 0.00 0.00 0.00 0.00 0.00 0.00 0.00 0.00 0.00 0.00 0.00 0.00
0.03 0.03 0.02 0.03 0.03 0.04 0.05 0.06 0.09 0.09 0.08 0.06 0.06 0.06 0.02 0.03 0.05 0.08 0.07 0.05 0.04 0.02 0.01 0.01 0.02 0.02 0.01 0.01 0.00 0.00 0.00 0.00 0.00 0.00 0.00 0.00 0.00 0.00 0.00 0.00 0.00 0.00 0.00 0.00
0.03 0.02 0.01 0.01 0.02 0.02 0.05 0.07 0.09 0.09 0.08 0.10 0.05 0.04 0.02 0.01 0.02 0.04 0.05 0.06 0.04 0.02 0.01 0.01 0.01 0.01 0.02 0.01 0.00 0.00 0.00 0.00 0.00 0.00 0.00 0.00 0.00 0.00 0.00 0.00 0.00 0.00 0.00 0.00
0.03 0.02 0.01 0.01 0.01 0.03 0.06 0.06 0.06 0.06 0.04 0.05 0.03 0.02 0.01 0.01 0.01 0.01 0.03 0.02 0.02 0.01 0.01 0.01 0.01 0.01 0.01 0.01 0.01 0.00 0.00 0.00 0.00 0.00 0.00 0.00 0.00 0.00 0.00 0.00 0.00 0.00 0.00 0.00
0.03 0.01 0.01 0.01 0.01 0.03 0.05 0.05 0.03 0.04 0.02 0.02 0.02 0.01 0.01 0.00 0.00 0.00 0.01 0.01 0.01 0.01 0.00 0.00 0.00 0.00 0.01 0.01 0.01 0.00 0.00 0.00 0.00 0.00 0.00 0.00 0.00 0.00 0.00 0.00 0.00 0.00 0.00 0.00
0.02 0.01 0.01 0.01 0.01 0.02 0.03 0.03 0.03 0.05 0.03 0.03 0.02 0.01 0.00 0.00 0.00 0.00 0.01 0.01 0.00 0.00 0.00 0.00 0.00 0.00 0.00 0.01 0.01 0.01 0.00 0.00 0.00 0.00 0.00 0.00 0.00 0.00 0.00 0.00 0.00 0.00 0.00 0.00
0.01 0.01 0.01 0.01 0.01 0.01 0.02 0.03 0.03 0.04 0.02 0.02 0.02 0.01 0.00 0.00 0.00 0.00 0.01 0.03 0.01 0.00 0.00 0.00 0.00 0.00 0.00 0.01 0.00 0.01 0.01 0.01 0.01 0.01 0.01 0.01 0.01 0.01 0.00 0.00 0.00 0.00 0.00 0.00
0.01 0.01 0.01 0.01 0.01 0.01 0.01 0.02 0.02 0.03 0.01 0.02 0.03 0.01 0.01 0.00 0.01 0.01 0.03 0.03 0.00 0.00 0.00 0.00 0.00 0.00 0.00 0.00 0.00 0.00 0.01 0.01 0.01 0.01 0.01 0.01 0.01 0.01 0.00 0.00 0.00 0.00 0.00 0.00
0.00 0.01 0.01 0.01 0.01 0.01 0.01 0.01 0.01 0.01 0.02 0.03 0.02 0.02 0.01 0.00 0.01 0.01 0.02 0.01 0.00 0.00 0.00 0.00 0.00 0.00 0.00 0.00 0.00 0.00 0.00 0.01 0.01 0.01 0.02 0.01 0.00 0.00 0.00 0.00 0.00 0.00 0.00 0.00
0.00 0.01 0.01 0.01 0.00 0.00 0.00 0.00 0.00 0.00 0.01 0.01 0.01 0.01 0.01 0.00 0.00 0.00 0.00 0.00 0.00 0.00 0.00 0.01 0.01 0.01 0.00 0.01 0.00 0.00 0.00 0.00 0.00 0.01 0.01 0.01 0.00 0.00 0.00 0.00 0.00 0.01 0.01 0.00
0.01 0.01 0.01 0.00 0.00 0.00 0.00 0.00 0.00 0.00 0.00 0.00 0.00 0.00 0.01 0.00 0.00 0.00 0.00 0.00 0.00 0.00 0.01 0.01 0.01 0.01 0.01 0.00 0.00 0.00 0.00 0.00 0.00 0.00 0.01 0.01 0.01 0.00 0.00 0.00 0.00 0.00 0.00 0.00
0.00 0.01 0.01 0.01 0.00 0.00 0.00 0.00 0.00 0.00 0.00 0.00 0.00 0.00 0.00 0.00 0.00 0.00 0.00 0.00 0.00 0.00 0.00 0.00 0.00 0.00 0.00 0.00 0.01 0.00 0.00 0.00 0.00 0.00 0.01 0.01 0.01 0.00 0.00 0.00 0.00 0.00 0.00 0.00
0.00 0.00 0.00 0.01 0.00 0.00 0.00 0.00 0.00 0.00 0.00 0.00 0.00 0.00 0.00 0.00 0.00 0.00 0.00 0.00 0.00 0.00 0.00 0.00 0.00 0.00 0.00 0.00 0.00 0.00 0.00 0.00 0.00 0.00 0.01 0.01 0.01 0.01 0.00 0.00 0.00 0.00 0.00 0.00
0.00 0.00 0.00 0.01 0.00 0.00 0.00 0.00 0.00 0.00 0.00 0.00 0.00 0.00 0.00 0.00 0.00 0.00 0.00 0.00 0.00 0.00 0.00 0.00 0.00 0.00 0.00 0.00 0.00 0.00 0.00 0.00 0.01 0.01 0.01 0.01 0.01 0.01 0.00 0.00 0.00 0.00 0.00 0.00
0.00 0.00 0.00 0.00 0.01 0.00 0.00 0.00 0.00 0.00 0.00 0.00 0.00 0.00 0.00 0.00 0.00 0.00 0.00 0.00 0.00 0.00 0.00 0.00 0.00 0.00 0.00 0.00 0.00 0.00 0.00 0.00 0.01 0.01 0.01 0.01 0.01 0.01 0.00 0.00 0.00 0.00 0.00 0.00
0.00 0.00 0.00 0.00 0.01 0.01 0.00 0.00 0.00 0.00 0.00 0.00 0.00 0.00 0.00 0.00 0.00 0.00 0.00 0.00 0.00 0.00 0.00 0.00 0.00 0.00 0.00 0.00 0.00 0.00 0.00 0.00 0.00 0.00 0.00 0.01 0.01 0.01 0.00 0.00 0.00 0.00 0.00 0.00
0.00 0.00 0.00 0.00 0.00 0.01 0.00 0.00 0.00 0.00 0.00 0.00 0.00 0.00 0.00 0.00 0.00 0.00 0.00 0.00 0.00 0.00 0.00 0.00 0.00 0.00 0.00 0.00 0.00 0.00 0.00 0.00 0.00 0.00 0.00 0.00 0.01 0.01 0.00 0.00 0.00 0.00 0.00 0.00
0.00 0.00 0.00 0.00 0.00 0.01 0.01 0.00 0.00 0.00 0.00 0.00 0.00 0.00 0.00 0.00 0.00 0.00 0.00 0.00 0.00 0.00 0.00 0.00 0.00 0.00 0.00 0.00 0.00 0.00 0.00 0.00 0.00 0.00 0.00 0.00 0.00 0.00 0.00 0.00 0.00 0.00 0.00 0.00
0.00 0.00 0.00 0.00 0.00 0.00 0.00 0.00 0.00 0.00 0.00 0.00 0.00 0.00 0.00 0.00 0.00 0.00 0.00 0.00 0.00 0.00 0.00 0.00 0.00 0.00 0.00 0.00 0.00 0.00 0.00 0.00 0.00 0.00 0.00 0.00 0.00 0.00 0.00 0.00 0.00 0.00 0.00 0.00
0.00 0.00 0.00 0.00 0.00 0.00 0.00 0.00 0.00 0.00 0.00 0.00 0.00 0.00 0.00 0.00 0.00 0.00 0.00 0.00 0.00 0.00 0.00 0.00 0.00 0.00 0.00 0.00 0.00 0.00 0.00 0.00 0.00 0.00 0.00 0.00 0.00 0.00 0.00 0.00 0.00 0.00 0.00 0.00
0.00 0.00 0.00 0.00 0.00 0.00 0.00 0.00 0.00 0.00 0.00 0.00 0.00 0.00 0.00 0.00 0.00 0.00 0.00 0.00 0.00 0.00 0.00 0.00 0.00 0.00 0.00 0.00 0.00 0.00 0.00 0.00 0.00 0.00 0.00 0.00 0.00 0.00 0.00 0.00 0.00 0.00 0.00 0.00
0.00 0.00 0.00 0.00 0.00 0.00 0.00 0.00 0.00 0.00 0.00 0.00 0.00 0.00 0.00 0.00 0.00 0.00 0.00 0.00 0.00 0.00 0.00 0.00 0.00 0.00 0.00 0.00 0.00 0.00 0.00 0.00 0.00 0.00 0.00 0.00 0.00 0.00 0.00 0.01 0.01 0.00 0.00 0.00
MSLP
1013.52 1014.20 1014.71 1015.05 1015.24 1015.31 1015.32 1015.31 1015.31 1015.31 1015.31 1015.28 1015.20 1015.04 1014.82 1014.52 1014.19 1013.85 1013.55 1013.30 1013.14 1013.06 1013.05 1013.12 1013.23 1013.37 1013.55 1013.75 1013.98 1014.24 1014.53 1014.84 1015.16 1015.46 1015.71 1015.91 1016.02 1016.05 1016.01 1015.91 1015.77 1015.62 1015.48 1015.34
1014.05 1014.60 1014.98 1015.19 1015.28 1015.31 1015.33 1015.38 1015.47 1015.60 1015.71 1015.77 1015.73 1015.58 1015.29 1014.90 1014.44 1013.98 1013.57 1013.26 1013.07 1013.00 1013.05 1013.18 1013.36 1013.57 1013.78 1013.99 1014.22 1014.46 1014.72 1015.02 1015.33 1015.65 1015.93 1016.15 1016.30 1016.34 1016.30 1016.18 1016.02 1015.83 1015.65 1015.48
1014.30 1014.71 1014.97 1015.10 1015.15 1015.20 1015.29 1015.45 1015.67 1015.93 1016.15 1016.29 1016.27 1016.09 1015.72 1015.22 1014.64 1014.06 1013.55 1013.18 1012.98 1012.94 1013.05 1013.26 1013.52 1013.78 1014.03 1014.26 1014.47 1014.68 1014.91 1015.18 1015.47 1015.78 1016.08 1016.33 1016.51 1016.58 1016.55 1016.43 1016.25 1016.04 1015.84 1015.65
1014.30 1014.59 1014.76 1014.85 1014.93 1015.06 1015.27 1015.57 1015.95 1016.34 1016.67 1016.85 1016.83 1016.58 1016.12 1015.48 1014.77 1014.08 1013.49 1013.08 1012.88 1012.88 1013.06 1013.34 1013.68 1014.00 1014.29 1014.52 1014.70 1014.87 1015.06 1015.28 1015.55 1015.85 1016.15 1016.42 1016.63 1016.74 1016.73 1016.63 1016.46 1016.25 1016.03 1015.84
1014.15 1014.34 1014.47 1014.59 1014.75 1015.00 1015.36 1015.84 1016.37 1016.87 1017.27 1017.46 1017.40 1017.07 1016.48 1015.72 1014.88 1014.08 1013.42 1012.98 1012.79 1012.83 1013.07 1013.43 1013.84 1014.21 1014.52 1014.74 1014.90 1015.02 1015.15 1015.32 1015.54 1015.82 1016.13 1016.41 1016.65 1016.79 1016.83 1016.76 1016.61 1016.41 1016.20 1016.02
1013.95 1014.09 1014.22 1014.41 1014.68 1015.09 1015.63 1016.26 1016.92 1017.51 1017.94 1018.11 1017.98 1017.54 1016.83 1015.93 1014.97 1014.08 1013.37 1012.90 1012.72 1012.81 1013.10 1013.52 1013.97 1014.38 1014.70 1014.91 1015.04 1015.11 1015.18 1015.30 1015.48 1015.73 1016.02 1016.32 1016.58 1016.76 1016.83 1016.80 1016.69 1016.52 1016.33 1016.17
1013.81 1013.93 1014.10 1014.38 1014.80 1015.36 1016.05 1016.81 1017.56 1018.19 1018.61 1018.73 1018.51 1017.96 1017.13 1016.12 1015.07 1014.12 1013.36 1012.89 1012.72 1012.83 1013.16 1013.61 1014.09 1014.51 1014.82 1015.02 1015.11 1015.14 1015.16 1015.23 1015.37 1015.58 1015.86 1016.16 1016.44 1016.64 1016.75 1016.77 1016.69 1016.56 1016.40 1016.26
1013.76 1013.89 1014.13 1014.51 1015.05 1015.74 1016.54 1017.39 1018.18 1018.81 1019.18 1019.23 1018.92 1018.27 1017.35 1016.27 1015.17 1014.19 1013.42 1012.94 1012.77 1012.89 1013.23 1013.69 1014.16 1014.58 1014.88 1015.05 1015.12 1015.12 1015.11 1015.14 1015.24 1015.43 1015.69 1015.99 1016.26 1016.49 1016.62 1016.67 1016.62 1016.52 1016.40 1016.28
1013.79 1013.96 1014.27 1014.74 1015.37 1016.14 1016.99 1017.86 1018.63 1019.21 1019.52 1019.49 1019.11 1018.40 1017.45 1016.35 1015.25 1014.28 1013.52 1013.06 1012.90 1013.00 1013.32 1013.75 1014.20 1014.59 1014.87 1015.03 1015.08 1015.07 1015.04 1015.06 1015.15 1015.32 1015.56 1015.83 1016.11 1016.33 1016.48 1016.53 1016.51 1016.43 1016.33 1016.24
1013.83 1014.05 1014.43 1014.96 1015.63 1016.42 1017.26 1018.08 1018.78 1019.29 1019.51 1019.42 1019.00 1018.29 1017.36 1016.31 1015.28 1014.36 1013.66 1013.22 1013.06 1013.15 1013.43 1013.81 1014.21 1014.55 1014.81 1014.95 1015.01 1015.01 1015.00 1015.02 1015.11 1015.27 1015.49 1015.75 1016.00 1016.20 1016.34 1016.39 1016.37 1016.30 1016.21 1016.13
1013.82 1014.10 1014.51 1015.05 1015.71 1016.45 1017.22 1017.94 1018.54 1018.94 1019.09 1018.95 1018.54 1017.88 1017.05 1016.12 1015.21 1014.41 1013.80 1013.41 1013.25 1013.31 1013.53 1013.85 1014.19 1014.49 1014.72 1014.87 1014.95 1014.98 1015.00 1015.06 1015.16 1015.32 1015.52 1015.75 1015.97 1016.14 1016.25 1016.29 1016.26 1016.18 1016.09 1016.01
1013.72 1014.04 1014.46 1014.98 1015.58 1016.22 1016.85 1017.43 1017.89 1018.18 1018.27 1018.12 1017.76 1017.21 1016.53 1015.78 1015.05 1014.41 1013.91 1013.59 1013.45 1013.48 1013.65 1013.90 1014.17 1014.43 1014.65 1014.81 1014.92 1015.01 1015.09 1015.18 1015.31 1015.47 1015.66 1015.85 1016.03 1016.16 1016.24 1016.25 1016.20 1016.11 1016.01 1015.92
1013.54 1013.88 1014.28 1014.74 1015.24 1015.74 1016.22 1016.63 1016.94 1017.11 1017.14 1017.01 1016.74 1016.33 1015.85 1015.32 1014.80 1014.34 1013.98 1013.75 1013.64 1013.66 1013.77 1013.96 1014.18 1014.41 1014.62 1014.81 1014.97 1015.12 1015.26 1015.40 1015.56 1015.72 1015.89 1016.05 1016.18 1016.27 1016.30 1016.29 1016.22 1016.12 1016.01 1015.91
1013.35 1013.69 1014.06 1014.43 1014.80 1015.14 1015.43 1015.66 1015.81 1015.88 1015.86 1015.76 1015.58 1015.34 1015.06 1014.77 1014.48 1014.22 1014.02 1013.88 1013.82 1013.83 1013.92 1014.06 1014.24 1014.44 1014.66 1014.88 1015.10 1015.31 1015.51 1015.70 1015.88 1016.04 1016.19 1016.31 1016.40 1016.45 1016.45 1016.42 1016.34 1016.24 1016.13 1016.01
1013.23 1013.56 1013.88 1014.16 1014.39 1014.55 1014.66 1014.70 1014.69 1014.65 1014.59 1014.51 1014.42 1014.34 1014.27 1014.19 1014.12 1014.06 1014.01 1013.98 1013.97 1014.00 1014.07 1014.19 1014.35 1014.55 1014.79 1015.04 1015.31 1015.57 1015.82 1016.05 1016.24 1016.40 1016.53 1016.61 1016.67 1016.68 1016.67 1016.63 1016.56 1016.47 1016.37 1016.26
1013.28 1013.59 1013.84 1014.02 1014.11 1014.11 1014.03 1013.89 1013.73 1013.58 1013.46 1013.39 1013.38 1013.43 1013.52 1013.63 1013.76 1013.87 1013.97 1014.04 1014.10 1014.17 1014.25 1014.36 1014.52 1014.73 1014.98 1015.27 1015.58 1015.88 1016.16 1016.41 1016.61 1016.76 1016.86 1016.92 1016.94 1016.94 1016.93 1016.90 1016.86 1016.80 1016.73 1016.63
1013.55 1013.83 1014.01 1014.08 1014.04 1013.88 1013.63 1013.33 1013.02 1012.75 1012.57 1012.49 1012.52 1012.66 1012.87 1013.14 1013.41 1013.67 1013.89 1014.07 1014.21 1014.32 1014.43 1014.56 1014.73 1014.96 1015.23 1015.55 1015.88 1016.21 1016.50 1016.75 1016.94 1017.07 1017.15 1017.19 1017.20 1017.20 1017.20 1017.21 1017.21 1017.19 1017.16 1017.09
1014.02 1014.25 1014.36 1014.34 1014.16 1013.86 1013.46 1013.01 1012.57 1012.20 1011.94 1011.83 1011.87 1012.05 1012.35 1012.71 1013.10 1013.48 1013.80 1014.07 1014.28 1014.45 1014.61 1014.77 1014.97 1015.22 1015.51 1015.84 1016.18 1016.51 1016.81 1017.05 1017.22 1017.33 1017.39 1017.41 1017.43 1017.44 1017.47 1017.51 1017.56 1017.61 1017.62 1017.59
1014.60 1014.77 1014.81 1014.68 1014.40 1013.97 1013.44 1012.87 1012.31 1011.85 1011.52 1011.37 1011.39 1011.59 1011.93 1012.36 1012.83 1013.29 1013.70 1014.05 1014.34 1014.57 1014.78 1014.99 1015.22 1015.48 1015.79 1016.12 1016.46 1016.78 1017.06 1017.28 1017.43 1017.52 1017.57 1017.59 1017.61 1017.65 1017.71 1017.80 1017.90 1017.99 1018.05 1018.05
1015.15 1015.25 1015.20 1014.99 1014.61 1014.08 1013.45 1012.79 1012.15 1011.61 1011.23 1011.04 1011.05 1011.26 1011.62 1012.09 1012.61 1013.13 1013.62 1014.04 1014.40 1014.70 1014.96 1015.21 1015.47 1015.75 1016.06 1016.39 1016.71 1017.01 1017.27 1017.46 1017.60 1017.67 1017.72 1017.74 1017.77 1017.83 1017.93 1018.05 1018.18 1018.31 1018.40 1018.44
1015.55 1015.56 1015.42 1015.12 1014.66 1014.06 1013.37 1012.65 1011.98 1011.41 1011.00 1010.80 1010.80 1011.01 1011.39 1011.89 1012.45 1013.03 1013.57 1014.06 1014.48 1014.84 1015.16 1015.45 1015.73 1016.03 1016.33 1016.64 1016.95 1017.22 1017.45 1017.62 1017.74 1017.81 1017.85 1017.88 1017.93 1018.00 1018.11 1018.25 1018.41 1018.55 1018.65 1018.70
1015.67 1015.59 1015.37 1014.99 1014.47 1013.83 1013.12 1012.40 1011.73 1011.17 1010.78 1010.60 1010.62 1010.85 1011.26 1011.79 1012.39 1013.00 1013.60 1014.14 1014.62 1015.03 1015.39 1015.72 1016.02 1016.32 1016.62 1016.91 1017.18 1017.43 1017.63 1017.79 1017.89 1017.96 1018.01 1018.05 1018.10 1018.18 1018.29 1018.43 1018.57 1018.70 1018.80 1018.83
1015.51 1015.33 1015.02 1014.58 1014.03 1013.39 1012.70 1012.01 1011.40 1010.90 1010.57 1010.44 1010.52 1010.79 1011.23 1011.80 1012.44 1013.09 1013.73 1014.32 1014.84 1015.30 1015.69 1016.03 1016.35 1016.64 1016.92 1017.19 1017.44 1017.66 1017.84 1017.98 1018.09 1018.16 1018.21 1018.25 1018.31 1018.38 1018.48 1018.59 1018.70 1018.79 1018.84 1018.85
1015.10 1014.83 1014.45 1013.97 1013.41 1012.80 1012.17 1011.57 1011.05 1010.65 1010.42 1010.38 1010.53 1010.86 1011.35 1011.95 1012.62 1013.31 1013.98 1014.60 1015.15 1015.63 1016.04 1016.40 1016.71 1016.99 1017.26 1017.50 1017.72 1017.92 1018.09 1018.22 1018.32 1018.40 1018.45 1018.50 1018.55 1018.60 1018.67 1018.73 1018.79 1018.82 1018.82 1018.77
1014.56 1014.20 1013.77 1013.28 1012.75 1012.19 1011.65 1011.16 1010.76 1010.49 1010.39 1010.45 1010.69 1011.08 1011.62 1012.26 1012.95 1013.65 1014.33 1014.96 1015.53 1016.01 1016.43 1016.78 1017.09 1017.35 1017.60 1017.81 1018.02 1018.19 1018.35 1018.48 1018.58 1018.66 1018.72 1018.77 1018.81 1018.84 1018.86 1018.87 1018.86 1018.83 1018.76 1018.65
1014.02 1013.61 1013.15 1012.67 1012.18 1011.70 1011.27 1010.91 1010.65 1010.51 1010.53 1010.69 1011.01 1011.47 1012.04 1012.70 1013.39 1014.09 1014.77 1015.39 1015.94 1016.41 1016.82 1017.15 1017.44 1017.69 1017.90 1018.10 1018.28 1018.44 1018.59 1018.72 1018.83 1018.92 1018.98 1019.03 1019.05 1019.05 1019.03 1018.99 1018.92 1018.81 1018.68 1018.51
Thickness
5711 5698 5692 5699 5705 5706 5705 5701 5698 5707 5722 5718 5712 5713 5720 5727 5728 5727 5727 5730 5732 5737 5742 5746 5747 5748 5747 5746 5744 5743 5741 5740 5738 5735 5731 5728 5726 5725 5725 5724 5723 5721 5719 5717
5695 5691 5706 5714 5714 5711 5706 5698 5698 5708 5720 5716 5708 5710 5719 5724 5725 5728 5729 5729 5732 5735 5738 5741 5743 5745 5744 5743 5742 5741 5740 5738 5737 5735 5731 5728 5726 5724 5723 5722 5721 5719 5718 5715
5690 5702 5718 5715 5710 5705 5703 5700 5701 5704 5711 5714 5707 5701 5709 5720 5727 5729 5732 5733 5736 5736 5737 5738 5740 5741 5742 5741 5741 5741 5738 5737 5736 5734 5730 5727 5724 5721 5719 5718 5718 5718 5716 5714
5699 5713 5716 5712 5709 5708 5697 5712 5712 5709 5697 5690 5699 5681 5700 5711 5717 5723 5727 5730 5733 5737 5739 5738 5739 5739 5740 5741 5741 5740 5737 5736 5734 5732 5729 5724 5719 5716 5716 5716 5716 5716 5715 5713
5701 5712 5711 5708 5712 5714 5707 5717 5712 5707 5696 5689 5692 5683 5691 5708 5709 5717 5724 5730 5733 5737 5738 5738 5739 5739 5741 5741 5740 5738 5736 5734 5732 5730 5728 5723 5719 5717 5716 5715 5714 5713 5713 5711
5710 5721 5719 5716 5721 5722 5717 5709 5703 5696 5688 5677 5687 5683 5686 5700 5711 5719 5724 5729 5733 5736 5737 5738 5739 5739 5738 5739 5738 5736 5734 5732 5730 5728 5726 5722 5719 5717 5715 5713 5711 5710 5710 5709
5703 5713 5723 5726 5714 5714 5710 5691 5674 5670 5666 5671 5691 5687 5691 5714 5724 5726 5727 5728 5731 5734 5734 5734 5734 5734 5734 5734 5734 5733 5731 5729 5728 5726 5724 5721 5719 5716 5714 5712 5710 5708 5706 5706
5687 5690 5715 5723 5716 5706 5704 5695 5675 5665 5664 5672 5688 5686 5701 5724 5730 5733 5732 5730 5731 5731 5732 5732 5733 5733 5733 5733 5732 5731 5729 5727 5725 5724 5722 5720 5718 5715 5713 5712 5710 5708 5706 5705
5691 5694 5721 5729 5730 5719 5702 5694 5698 5684 5680 5672 5680 5693 5708 5722 5723 5725 5726 5726 5726 5727 5729 5730 5731 5731 5731 5731 5730 5729 5727 5725 5724 5722 5721 5718 5717 5715 5713 5711 5709 5708 5706 5706
5707 5697 5714 5727 5728 5723 5716 5707 5691 5683 5672 5666 5678 5685 5689 5706 5712 5718 5720 5721 5723 5725 5727 5728 5729 5729 5729 5730 5729 5728 5726 5724 5723 5721 5719 5718 5715 5714 5712 5710 5708 5706 5706 5705
5716 5701 5707 5716 5714 5711 5713 5708 5698 5687 5684 5670 5666 5680 5712 5712 5716 5717 5719 5721 5722 5723 5724 5725 5725 5727 5727 5727 5727 5725 5724 5722 5721 5719 5717 5716 5714 5712 5710 5708 5706 5705 5704 5703
5719 5702 5695 5709 5727 5734 5726 5718 5705 5688 5683 5681 5675 5684 5723 5721 5721 5720 5719 5720 5722 5723 5723 5723 5723 5723 5723 5722 5722 5722 5721 5720 5719 5717 5716 5713 5712 5710 5707 5706 5705 5703 5702 5701
5721 5703 5689 5693 5706 5722 5723 5724 5717 5704 5690 5681 5676 5688 5718 5718 5718 5719 5718 5717 5718 5720 5720 5719 5719 5718 5719 5719 5719 5719 5718 5717 5717 5715 5713 5710 5708 5706 5705 5703 5702 5701 5700 5699
5728 5707 5697 5692 5700 5713 5718 5723 5722 5708 5689 5686 5690 5695 5707 5712 5713 5713 5714 5715 5715 5715 5716 5715 5713 5714 5715 5716 5716 5715 5715 5715 5714 5712 5709 5707 5705 5704 5702 5701 5700 5699 5697 5696
5724 5708 5712 5715 5723 5724 5723 5724 5723 5716 5708 5698 5700 5701 5708 5713 5715 5715 5714 5713 5713 5711 5711 5711 5710 5709 5710 5711 5711 5711 5711 5710 5710 5707 5705 5703 5702 5701 5699 5698 5697 5695 5694 5693
5718 5709 5711 5711 5721 5722 5719 5723 5723 5721 5718 5712 5708 5704 5717 5716 5714 5712 5711 5711 5708 5707 5707 5707 5707 5707 5706 5707 5707 5706 5706 5705 5704 5702 5700 5699 5698 5697 5695 5694 5693 5692 5690 5689
5710 5707 5699 5694 5709 5714 5703 5718 5720 5718 5721 5715 5704 5708 5714 5711 5711 5709 5709 5709 5707 5705 5705 5704 5703 5703 5703 5703 5703 5702 5701 5701 5699 5697 5696 5695 5694 5692 5690 5690 5688 5686 5685 5684
5711 5702 5690 5689 5698 5686 5705 5727 5728 5721 5719 5721 5718 5716 5716 5715 5712 5711 5710 5707 5705 5704 5702 5701 5700 5700 5700 5700 5699 5698 5696 5695 5693 5691 5690 5689 5688 5687 5685 5683 5682 5681 5680 5678
5718 5704 5688 5680 5680 5688 5708 5722 5723 5714 5707 5718 5716 5714 5712 5711 5705 5701 5707 5707 5705 5703 5701 5698 5697 5696 5695 5694 5693 5691 5689 5687 5686 5684 5683 5683 5682 5680 5678 5676 5675 5674 5673 5671
5711 5705 5688 5677 5676 5676 5701 5722 5728 5717 5696 5713 5716 5711 5708 5705 5688 5690 5702 5702 5700 5699 5697 5694 5692 5690 5688 5687 5686 5684 5681 5679 5678 5678 5678 5677 5676 5674 5672 5670 5668 5667 5666 5664
5695 5689 5682 5676 5675 5684 5709 5720 5722 5694 5696 5712 5713 5711 5706 5700 5698 5697 5698 5696 5695 5693 5691 5689 5686 5682 5680 5680 5678 5674 5672 5671 5672 5672 5671 5670 5668 5666 5664 5662 5661 5659 5657 5655
5688 5681 5676 5671 5669 5680 5712 5714 5706 5705 5713 5712 5709 5707 5703 5698 5697 5694 5692 5689 5687 5684 5683 5681 5677 5674 5673 5672 5669 5666 5663 5664 5664 5663 5662 5660 5659 5657 5657 5653 5651 5649 5647 5644
5687 5689 5683 5681 5683 5698 5707 5711 5713 5712 5708 5706 5703 5701 5699 5693 5688 5686 5683 5681 5679 5677 5674 5672 5668 5665 5663 5662 5660 5657 5656 5656 5655 5653 5651 5649 5648 5646 5645 5642 5640 5638 5636 5634
5686 5689 5682 5678 5685 5694 5699 5703 5705 5706 5703 5701 5699 5695 5692 5686 5681 5678 5675 5672 5669 5667 5665 5662 5659 5656 5653 5652 5650 5648 5648 5647 5644 5641 5639 5638 5636 5634 5633 5631 5629 5627 5624 5622
5682 5682 5674 5671 5680 5684 5688 5692 5694 5694 5693 5691 5688 5686 5682 5678 5672 5669 5665 5662 5660 5658 5655 5652 5649 5646 5643 5642 5640 5639 5637 5636 5632 5629 5627 5625 5624 5622 5620 5619 5617 5615 5614 5612
5676 5676 5672 5670 5678 5676 5677 5684 5687 5685 5681 5679 5676 5672 5671 5668 5663 5659 5655 5652 5650 5647 5645 5641 5638 5636 5633 5632 5630 5628 5627 5624 5620 5617 5615 5612 5610 5609 5607 5605 5605 5605 5603 5603